Time,TemperatureF,DewpointF,PressureIn,WindDirection,WindDirectionDegrees,WindSpeedMPH,WindSpeedGustMPH,Humidity,HourlyPrecipIn,Conditions,Clouds,dailyrainin,SoftwareType,DateUTC
2013-06-14 00:01:00,60.8,55.6,29.74,NW,325,4.0,6.0,83,0.00,,---,0.00,VWS V13.01,2013-06-14 04:01:00,
2013-06-14 00:06:00,60.8,55.6,29.74,NNW,330,2.0,6.0,83,0.00,,---,0.00,VWS V13.01,2013-06-14 04:06:00,
2013-06-14 00:11:00,60.8,55.6,29.75,NW,310,1.0,6.0,83,0.00,,---,0.00,VWS V13.01,2013-06-14 04:11:00,
2013-06-14 00:16:00,60.8,55.6,29.75,NNW,339,3.0,9.0,83,0.00,,---,0.00,VWS V13.01,2013-06-14 04:16:00,
2013-06-14 00:21:00,60.9,55.7,29.75,NNE,28,0.0,9.0,83,0.00,,---,0.00,VWS V13.01,2013-06-14 04:21:00,
2013-06-14 00:26:00,60.9,55.4,29.75,NNW,342,1.0,9.0,82,0.00,,---,0.00,VWS V13.01,2013-06-14 04:26:00,
2013-06-14 00:31:00,60.9,55.7,29.75,NNW,342,1.0,5.0,83,0.00,,---,0.00,VWS V13.01,2013-06-14 04:31:00,
2013-06-14 00:36:00,60.9,55.4,29.75,NNW,338,0.0,9.0,82,0.00,,---,0.00,VWS V13.01,2013-06-14 04:36:00,
2013-06-14 00:41:00,60.8,55.3,29.76,NNW,327,2.0,9.0,82,0.00,,---,0.00,VWS V13.01,2013-06-14 04:41:00,
2013-06-14 00:46:00,60.8,55.3,29.76,North,355,3.0,9.0,82,0.00,,---,0.00,VWS V13.01,2013-06-14 04:46:00,
2013-06-14 00:51:00,60.7,55.5,29.76,NNW,342,2.0,9.0,83,0.00,,---,0.00,VWS V13.01,2013-06-14 04:51:00,
2013-06-14 00:56:00,60.5,55.3,29.76,NNW,336,0.0,9.0,83,0.00,,---,0.00,VWS V13.01,2013-06-14 04:56:00,
2013-06-14 01:01:00,60.4,55.2,29.77,North,349,2.0,3.0,83,0.00,,---,0.00,VWS V13.01,2013-06-14 05:01:00,
2013-06-14 01:06:00,60.4,55.2,29.77,NNW,347,0.0,3.0,83,0.00,,---,0.00,VWS V13.01,2013-06-14 05:06:00,
2013-06-14 01:11:00,60.3,55.5,29.77,NNW,348,0.0,3.0,84,0.00,,---,0.00,VWS V13.01,2013-06-14 05:11:00,
2013-06-14 01:16:00,60.3,55.5,29.77,NNW,344,0.0,5.0,84,0.00,,---,0.00,VWS V13.01,2013-06-14 05:16:00,
2013-06-14 01:21:00,60.2,55.3,29.77,NNW,333,3.0,5.0,84,0.00,,---,0.00,VWS V13.01,2013-06-14 05:21:00,
2013-06-14 01:26:00,60.2,55.7,29.77,NNW,340,0.0,5.0,85,0.00,,---,0.00,VWS V13.01,2013-06-14 05:26:00,
2013-06-14 01:31:00,60.0,55.5,29.77,NNW,341,0.0,2.0,85,0.00,,---,0.00,VWS V13.01,2013-06-14 05:31:00,
2013-06-14 01:36:00,59.9,55.4,29.77,NNW,337,0.0,2.0,85,0.00,,---,0.00,VWS V13.01,2013-06-14 05:36:00,
2013-06-14 01:41:00,59.8,55.3,29.77,NNW,337,1.0,2.0,85,0.00,,---,0.00,VWS V13.01,2013-06-14 05:41:00,
2013-06-14 01:46:00,59.6,55.4,29.78,WNW,302,0.0,4.0,86,0.00,,---,0.00,VWS V13.01,2013-06-14 05:46:00,
2013-06-14 01:51:00,59.5,55.3,29.78,NNW,331,0.0,5.0,86,0.00,,---,0.00,VWS V13.01,2013-06-14 05:51:00,
2013-06-14 01:56:00,59.4,55.2,29.78,NW,306,4.0,5.0,86,0.00,,---,0.00,VWS V13.01,2013-06-14 05:56:00,
2013-06-14 02:01:00,59.4,55.2,29.78,WNW,297,0.0,5.0,86,0.00,,---,0.00,VWS V13.01,2013-06-14 06:01:00,
2013-06-14 02:06:00,59.2,55.3,29.78,NW,322,1.0,6.0,87,0.00,,---,0.00,VWS V13.01,2013-06-14 06:06:00,
2013-06-14 02:11:00,59.2,55.3,29.78,NW,323,1.0,6.0,87,0.00,,---,0.00,VWS V13.01,2013-06-14 06:11:00,
2013-06-14 02:16:00,59.1,55.2,29.78,NW,319,0.0,6.0,87,0.00,,---,0.00,VWS V13.01,2013-06-14 06:16:00,
2013-06-14 02:21:00,59.0,55.1,29.78,NW,314,0.0,6.0,87,0.00,,---,0.00,VWS V13.01,2013-06-14 06:21:00,
2013-06-14 02:26:00,58.9,55.0,29.78,NW,309,0.0,6.0,87,0.00,,---,0.00,VWS V13.01,2013-06-14 06:26:00,
2013-06-14 02:31:00,58.9,55.0,29.78,NW,309,0.0,0.0,87,0.00,,---,0.00,VWS V13.01,2013-06-14 06:31:00,
2013-06-14 02:36:00,58.8,55.0,29.78,NW,309,0.0,0.0,87,0.00,,---,0.00,VWS V13.01,2013-06-14 06:36:00,
2013-06-14 02:41:00,58.8,55.3,29.79,NW,309,0.0,1.0,88,0.00,,---,0.00,VWS V13.01,2013-06-14 06:41:00,
2013-06-14 02:46:00,58.8,55.3,29.79,NW,309,0.0,2.0,88,0.00,,---,0.00,VWS V13.01,2013-06-14 06:46:00,
2013-06-14 02:51:00,58.8,55.0,29.78,WNW,297,0.0,4.0,87,0.00,,---,0.00,VWS V13.01,2013-06-14 06:51:00,
2013-06-14 02:56:00,58.8,55.3,29.78,NNW,329,2.0,5.0,88,0.00,,---,0.00,VWS V13.01,2013-06-14 06:56:00,
2013-06-14 03:01:00,58.8,55.0,29.78,North,355,3.0,5.0,87,0.00,,---,0.00,VWS V13.01,2013-06-14 07:01:00,
2013-06-14 03:06:00,58.8,55.0,29.79,NNW,338,1.0,5.0,87,0.00,,---,0.00,VWS V13.01,2013-06-14 07:06:00,
2013-06-14 03:11:00,58.7,55.2,29.79,NNW,338,0.0,5.0,88,0.00,,---,0.00,VWS V13.01,2013-06-14 07:11:00,
2013-06-14 03:16:00,58.7,55.2,29.79,NNW,338,0.0,5.0,88,0.00,,---,0.00,VWS V13.01,2013-06-14 07:16:00,
2013-06-14 03:21:00,58.6,55.1,29.79,WNW,298,2.0,5.0,88,0.00,,---,0.00,VWS V13.01,2013-06-14 07:21:00,
2013-06-14 03:26:00,58.6,55.1,29.79,NW,323,0.0,5.0,88,0.00,,---,0.00,VWS V13.01,2013-06-14 07:26:00,
2013-06-14 03:31:00,58.5,55.0,29.80,NW,317,0.0,2.0,88,0.00,,---,0.00,VWS V13.01,2013-06-14 07:31:00,
2013-06-14 03:36:00,58.5,55.0,29.80,WNW,289,0.0,4.0,88,0.00,,---,0.00,VWS V13.01,2013-06-14 07:36:00,
2013-06-14 03:41:00,58.5,55.0,29.80,West,279,2.0,4.0,88,0.00,,---,0.00,VWS V13.01,2013-06-14 07:41:00,
2013-06-14 03:46:00,58.5,55.0,29.79,WNW,290,0.0,4.0,88,0.00,,---,0.00,VWS V13.01,2013-06-14 07:46:00,
2013-06-14 03:51:00,58.5,55.0,29.80,WNW,290,0.0,4.0,88,0.00,,---,0.00,VWS V13.01,2013-06-14 07:51:00,
2013-06-14 03:56:00,58.5,55.0,29.80,WNW,290,0.0,4.0,88,0.00,,---,0.00,VWS V13.01,2013-06-14 07:56:00,
2013-06-14 04:01:00,58.5,55.0,29.80,WNW,290,0.0,2.0,88,0.00,,---,0.00,VWS V13.01,2013-06-14 08:01:00,
2013-06-14 04:06:00,58.5,55.0,29.80,NW,320,1.0,3.0,88,0.00,,---,0.00,VWS V13.01,2013-06-14 08:06:00,
2013-06-14 04:11:00,58.5,55.0,29.81,NW,320,0.0,3.0,88,0.00,,---,0.00,VWS V13.01,2013-06-14 08:11:00,
2013-06-14 04:16:00,58.5,55.0,29.81,NW,320,1.0,3.0,88,0.00,,---,0.00,VWS V13.01,2013-06-14 08:16:00,
2013-06-14 04:21:00,58.5,55.0,29.81,NW,311,2.0,3.0,88,0.00,,---,0.00,VWS V13.01,2013-06-14 08:21:00,
2013-06-14 04:26:00,58.5,55.0,29.81,NW,311,0.0,3.0,88,0.00,,---,0.00,VWS V13.01,2013-06-14 08:26:00,
2013-06-14 04:31:00,58.5,55.0,29.82,WNW,301,0.0,4.0,88,0.00,,---,0.00,VWS V13.01,2013-06-14 08:31:00,
2013-06-14 04:36:00,58.5,55.0,29.82,WNW,301,0.0,4.0,88,0.00,,---,0.00,VWS V13.01,2013-06-14 08:36:00,
2013-06-14 04:41:00,58.5,55.0,29.82,NW,315,2.0,5.0,88,0.00,,---,0.00,VWS V13.01,2013-06-14 08:41:00,
2013-06-14 04:46:00,58.5,55.0,29.82,NNW,331,1.0,5.0,88,0.00,,---,0.00,VWS V13.01,2013-06-14 08:46:00,
2013-06-14 04:51:00,58.4,54.9,29.82,NNW,330,0.0,5.0,88,0.00,,---,0.00,VWS V13.01,2013-06-14 08:51:00,
2013-06-14 04:56:00,58.4,54.9,29.82,NNW,330,0.0,5.0,88,0.00,,---,0.00,VWS V13.01,2013-06-14 08:56:00,
2013-06-14 05:01:00,58.4,54.9,29.82,NNW,329,0.0,2.0,88,0.00,,---,0.00,VWS V13.01,2013-06-14 09:01:00,
2013-06-14 05:06:00,58.3,54.8,29.82,NNW,328,0.0,2.0,88,0.00,,---,0.00,VWS V13.01,2013-06-14 09:06:00,
2013-06-14 05:11:00,58.3,54.8,29.83,NW,325,0.0,3.0,88,0.00,,---,0.00,VWS V13.01,2013-06-14 09:11:00,
2013-06-14 05:16:00,58.3,54.8,29.83,NW,325,1.0,3.0,88,0.00,,---,0.00,VWS V13.01,2013-06-14 09:16:00,
2013-06-14 05:21:00,58.3,54.8,29.83,NW,325,0.0,3.0,88,0.00,,---,0.00,VWS V13.01,2013-06-14 09:21:00,
2013-06-14 05:26:00,58.2,55.0,29.83,WNW,302,1.0,4.0,89,0.00,,---,0.00,VWS V13.01,2013-06-14 09:26:00,
2013-06-14 05:31:00,58.2,54.7,29.83,NNW,329,1.0,1.0,88,0.00,,---,0.00,VWS V13.01,2013-06-14 09:31:00,
2013-06-14 05:36:00,58.2,54.7,29.83,NW,323,0.0,2.0,88,0.00,,---,0.00,VWS V13.01,2013-06-14 09:36:00,
2013-06-14 05:41:00,58.2,55.0,29.83,WNW,299,3.0,3.0,89,0.00,,---,0.00,VWS V13.01,2013-06-14 09:41:00,
2013-06-14 05:46:00,58.1,54.6,29.83,WNW,290,1.0,4.0,88,0.00,,---,0.00,VWS V13.01,2013-06-14 09:46:00,
2013-06-14 05:51:00,58.1,54.6,29.83,NW,321,0.0,4.0,88,0.00,,---,0.00,VWS V13.01,2013-06-14 09:51:00,
2013-06-14 05:56:00,58.1,54.6,29.84,NW,318,0.0,4.0,88,0.00,,---,0.00,VWS V13.01,2013-06-14 09:56:00,
2013-06-14 06:01:00,58.1,54.6,29.84,NW,318,0.0,1.0,88,0.00,,---,0.00,VWS V13.01,2013-06-14 10:01:00,
2013-06-14 06:06:00,58.1,54.9,29.84,NW,318,0.0,2.0,89,0.00,,---,0.00,VWS V13.01,2013-06-14 10:06:00,
2013-06-14 06:11:00,58.0,54.8,29.84,NW,318,0.0,2.0,89,0.00,,---,0.00,VWS V13.01,2013-06-14 10:11:00,
2013-06-14 06:16:00,58.1,54.9,29.84,NW,318,0.0,2.0,89,0.00,,---,0.00,VWS V13.01,2013-06-14 10:16:00,
2013-06-14 06:21:00,58.0,54.8,29.84,NW,318,2.0,3.0,89,0.00,,---,0.00,VWS V13.01,2013-06-14 10:21:00,
2013-06-14 06:26:00,58.0,54.5,29.84,NW,318,0.0,3.0,88,0.00,,---,0.00,VWS V13.01,2013-06-14 10:26:00,
2013-06-14 06:31:00,58.1,54.6,29.84,NW,318,0.0,1.0,88,0.00,,---,0.00,VWS V13.01,2013-06-14 10:31:00,
2013-06-14 06:36:00,58.1,54.6,29.85,NW,319,0.0,2.0,88,0.00,,---,0.00,VWS V13.01,2013-06-14 10:36:00,
2013-06-14 06:41:00,58.2,54.7,29.85,NNW,337,0.0,2.0,88,0.00,,---,0.00,VWS V13.01,2013-06-14 10:41:00,
2013-06-14 06:46:00,58.4,54.9,29.85,NNW,337,0.0,2.0,88,0.00,,---,0.00,VWS V13.01,2013-06-14 10:46:00,
2013-06-14 06:51:00,58.5,54.7,29.85,NNW,337,2.0,2.0,87,0.00,,---,0.00,VWS V13.01,2013-06-14 10:51:00,
2013-06-14 06:56:00,58.6,55.1,29.85,North,355,0.0,2.0,88,0.00,,---,0.00,VWS V13.01,2013-06-14 10:56:00,
2013-06-14 07:01:00,58.7,54.8,29.85,North,355,0.0,0.0,87,0.00,,---,0.00,VWS V13.01,2013-06-14 11:01:00,
2013-06-14 07:06:00,58.9,55.4,29.86,North,355,1.0,2.0,88,0.00,,---,0.00,VWS V13.01,2013-06-14 11:06:00,
2013-06-14 07:11:00,59.0,55.1,29.86,NNE,15,0.0,4.0,87,0.00,,---,0.00,VWS V13.01,2013-06-14 11:11:00,
2013-06-14 07:16:00,59.1,54.9,29.86,North,5,1.0,4.0,86,0.00,,---,0.00,VWS V13.01,2013-06-14 11:16:00,
2013-06-14 07:21:00,59.1,55.2,29.86,North,5,0.0,4.0,87,0.00,,---,0.00,VWS V13.01,2013-06-14 11:21:00,
2013-06-14 07:26:00,59.2,55.3,29.86,North,5,1.0,4.0,87,0.00,,---,0.00,VWS V13.01,2013-06-14 11:26:00,
2013-06-14 07:31:00,59.2,55.3,29.86,NNE,12,1.0,3.0,87,0.00,,---,0.00,VWS V13.01,2013-06-14 11:31:00,
2013-06-14 07:36:00,59.2,55.0,29.86,NNE,12,0.0,3.0,86,0.00,,---,0.00,VWS V13.01,2013-06-14 11:36:00,
2013-06-14 07:41:00,59.3,55.1,29.87,North,5,1.0,3.0,86,0.00,,---,0.00,VWS V13.01,2013-06-14 11:41:00,
2013-06-14 07:46:00,59.4,55.2,29.87,North,5,1.0,4.0,86,0.00,,---,0.00,VWS V13.01,2013-06-14 11:46:00,
2013-06-14 07:51:00,59.5,55.3,29.87,North,5,0.0,4.0,86,0.00,,---,0.00,VWS V13.01,2013-06-14 11:51:00,
2013-06-14 07:56:00,59.6,55.4,29.88,North,5,0.0,4.0,86,0.00,,---,0.00,VWS V13.01,2013-06-14 11:56:00,
2013-06-14 08:01:00,59.7,55.5,29.88,North,5,0.0,0.0,86,0.00,,---,0.00,VWS V13.01,2013-06-14 12:01:00,
2013-06-14 08:06:00,59.8,55.6,29.88,North,5,0.0,0.0,86,0.00,,---,0.00,VWS V13.01,2013-06-14 12:06:00,
2013-06-14 08:11:00,59.8,55.6,29.88,NNW,340,0.0,4.0,86,0.00,,---,0.00,VWS V13.01,2013-06-14 12:11:00,
2013-06-14 08:16:00,59.9,55.4,29.88,NNW,340,0.0,4.0,85,0.00,,---,0.00,VWS V13.01,2013-06-14 12:16:00,
2013-06-14 08:21:00,60.0,55.5,29.88,NNW,340,0.0,4.0,85,0.00,,---,0.00,VWS V13.01,2013-06-14 12:21:00,
2013-06-14 08:26:00,60.3,56.1,29.88,NNW,340,1.0,4.0,86,0.00,,---,0.00,VWS V13.01,2013-06-14 12:26:00,
2013-06-14 08:31:00,60.8,56.3,29.89,WSW,240,3.0,4.0,85,0.00,,---,0.00,VWS V13.01,2013-06-14 12:31:00,
2013-06-14 08:36:00,61.1,56.2,29.89,WSW,244,0.0,5.0,84,0.00,,---,0.00,VWS V13.01,2013-06-14 12:36:00,
2013-06-14 08:41:00,61.2,56.3,29.89,West,281,1.0,5.0,84,0.00,,---,0.00,VWS V13.01,2013-06-14 12:41:00,
2013-06-14 08:46:00,61.0,55.8,29.89,West,279,1.0,5.0,83,0.00,,---,0.00,VWS V13.01,2013-06-14 12:46:00,
2013-06-14 08:51:00,60.9,55.7,29.89,West,279,0.0,5.0,83,0.00,,---,0.00,VWS V13.01,2013-06-14 12:51:00,
2013-06-14 08:56:00,61.1,56.2,29.90,West,279,0.0,5.0,84,0.00,,---,0.00,VWS V13.01,2013-06-14 12:56:00,
2013-06-14 09:01:00,61.2,56.0,29.90,WNW,288,0.0,0.0,83,0.00,,---,0.00,VWS V13.01,2013-06-14 13:01:00,
2013-06-14 09:06:00,61.4,56.2,29.90,WNW,288,0.0,1.0,83,0.00,,---,0.00,VWS V13.01,2013-06-14 13:06:00,
2013-06-14 09:11:00,61.5,56.6,29.90,WNW,288,1.0,3.0,84,0.00,,---,0.00,VWS V13.01,2013-06-14 13:11:00,
2013-06-14 09:16:00,61.5,56.3,29.91,WNW,288,0.0,3.0,83,0.00,,---,0.00,VWS V13.01,2013-06-14 13:16:00,
2013-06-14 09:21:00,61.5,56.6,29.91,West,272,0.0,5.0,84,0.00,,---,0.00,VWS V13.01,2013-06-14 13:21:00,
2013-06-14 09:26:00,61.4,56.5,29.91,SW,234,3.0,5.0,84,0.00,,---,0.00,VWS V13.01,2013-06-14 13:26:00,
2013-06-14 09:31:00,61.4,56.5,29.91,West,262,0.0,2.0,84,0.00,,---,0.00,VWS V13.01,2013-06-14 13:31:00,
2013-06-14 09:36:00,61.4,56.5,29.92,West,265,1.0,4.0,84,0.00,,---,0.00,VWS V13.01,2013-06-14 13:36:00,
2013-06-14 09:41:00,61.4,56.5,29.92,West,264,0.0,4.0,84,0.00,,---,0.00,VWS V13.01,2013-06-14 13:41:00,
2013-06-14 09:46:00,61.6,57.0,29.92,NNW,345,4.0,4.0,85,0.00,,---,0.00,VWS V13.01,2013-06-14 13:46:00,
2013-06-14 09:51:00,61.9,57.0,29.92,NNW,346,0.0,4.0,84,0.00,,---,0.00,VWS V13.01,2013-06-14 13:51:00,
2013-06-14 09:56:00,62.3,57.1,29.92,West,280,1.0,4.0,83,0.00,,---,0.00,VWS V13.01,2013-06-14 13:56:00,
2013-06-14 10:01:00,62.4,56.8,29.92,West,278,2.0,4.0,82,0.00,,---,0.00,VWS V13.01,2013-06-14 14:01:00,
2013-06-14 10:06:00,62.5,56.9,29.92,SW,232,2.0,4.0,82,0.00,,---,0.00,VWS V13.01,2013-06-14 14:06:00,
2013-06-14 10:11:00,62.6,56.7,29.92,SW,232,2.0,4.0,81,0.00,,---,0.00,VWS V13.01,2013-06-14 14:11:00,
2013-06-14 10:16:00,62.6,57.0,29.93,WNW,286,0.0,4.0,82,0.00,,---,0.00,VWS V13.01,2013-06-14 14:16:00,
2013-06-14 10:21:00,62.8,57.2,29.93,WNW,286,2.0,4.0,82,0.00,,---,0.00,VWS V13.01,2013-06-14 14:21:00,
2013-06-14 10:26:00,63.4,58.2,29.92,NW,304,0.0,7.0,83,0.00,,---,0.00,VWS V13.01,2013-06-14 14:26:00,
2013-06-14 10:31:00,63.8,57.5,29.92,NW,307,1.0,3.0,80,0.00,,---,0.00,VWS V13.01,2013-06-14 14:31:00,
2013-06-14 10:36:00,63.8,57.5,29.92,WNW,286,6.0,7.0,80,0.00,,---,0.00,VWS V13.01,2013-06-14 14:36:00,
2013-06-14 10:41:00,64.0,57.7,29.93,NW,319,2.0,7.0,80,0.00,,---,0.00,VWS V13.01,2013-06-14 14:41:00,
2013-06-14 10:46:00,64.0,57.4,29.93,North,355,2.0,7.0,79,0.00,,---,0.00,VWS V13.01,2013-06-14 14:46:00,
2013-06-14 10:51:00,64.2,57.9,29.93,NW,319,3.0,7.0,80,0.00,,---,0.00,VWS V13.01,2013-06-14 14:51:00,
2013-06-14 10:56:00,64.7,58.0,29.93,NNE,32,0.0,7.0,79,0.00,,---,0.00,VWS V13.01,2013-06-14 14:56:00,
2013-06-14 11:01:00,65.1,57.7,29.93,NE,34,0.0,1.0,77,0.00,,---,0.00,VWS V13.01,2013-06-14 15:01:00,
2013-06-14 11:06:00,65.3,57.2,29.94,NE,34,0.0,1.0,75,0.00,,---,0.00,VWS V13.01,2013-06-14 15:06:00,
2013-06-14 11:11:00,65.1,57.4,29.94,WNW,295,2.0,7.0,76,0.00,,---,0.00,VWS V13.01,2013-06-14 15:11:00,
2013-06-14 11:16:00,64.7,57.3,29.94,NNW,334,0.0,7.0,77,0.00,,---,0.00,VWS V13.01,2013-06-14 15:16:00,
2013-06-14 11:21:00,65.0,58.7,29.94,North,355,1.0,7.0,80,0.00,,---,0.00,VWS V13.01,2013-06-14 15:21:00,
2013-06-14 11:26:00,65.8,58.4,29.94,North,9,3.0,7.0,77,0.00,,---,0.00,VWS V13.01,2013-06-14 15:26:00,
2013-06-14 11:31:00,66.1,58.0,29.95,WSW,257,0.0,3.0,75,0.00,,---,0.00,VWS V13.01,2013-06-14 15:31:00,
2013-06-14 11:36:00,65.8,58.0,29.95,NW,320,2.0,5.0,76,0.00,,---,0.00,VWS V13.01,2013-06-14 15:36:00,
2013-06-14 11:41:00,65.6,57.8,29.95,WNW,292,2.0,6.0,76,0.00,,---,0.00,VWS V13.01,2013-06-14 15:41:00,
2013-06-14 11:46:00,65.8,58.4,29.94,NW,311,4.0,6.0,77,0.00,,---,0.00,VWS V13.01,2013-06-14 15:46:00,
2013-06-14 11:51:00,66.3,58.9,29.95,NNW,327,0.0,7.0,77,0.00,,---,0.00,VWS V13.01,2013-06-14 15:51:00,
2013-06-14 11:56:00,66.7,58.9,29.95,WNW,298,1.0,7.0,76,0.00,,---,0.00,VWS V13.01,2013-06-14 15:56:00,
2013-06-14 12:01:00,66.6,58.4,29.95,West,281,8.0,8.0,75,0.00,,---,0.00,VWS V13.01,2013-06-14 16:01:00,
2013-06-14 12:06:00,66.5,58.0,29.95,North,355,5.0,12.0,74,0.00,,---,0.00,VWS V13.01,2013-06-14 16:06:00,
2013-06-14 12:11:00,66.8,59.4,29.95,WNW,290,4.0,12.0,77,0.00,,---,0.00,VWS V13.01,2013-06-14 16:11:00,
2013-06-14 12:16:00,67.1,58.9,29.95,NW,306,4.0,12.0,75,0.00,,---,0.00,VWS V13.01,2013-06-14 16:16:00,
2013-06-14 12:21:00,66.9,57.6,29.96,WSW,257,5.0,12.0,72,0.00,,---,0.00,VWS V13.01,2013-06-14 16:21:00,
2013-06-14 12:26:00,66.5,57.2,29.96,West,268,0.0,12.0,72,0.00,,---,0.00,VWS V13.01,2013-06-14 16:26:00,
2013-06-14 12:31:00,66.3,58.5,29.95,WNW,291,0.0,2.0,76,0.00,,---,0.00,VWS V13.01,2013-06-14 16:31:00,
2013-06-14 12:36:00,66.6,58.8,29.95,SW,219,5.0,6.0,76,0.00,,---,0.00,VWS V13.01,2013-06-14 16:36:00,
2013-06-14 12:41:00,67.1,58.9,29.95,West,260,1.0,6.0,75,0.00,,---,0.00,VWS V13.01,2013-06-14 16:41:00,
2013-06-14 12:46:00,67.5,58.2,29.95,NW,312,3.0,8.0,72,0.00,,---,0.00,VWS V13.01,2013-06-14 16:46:00,
2013-06-14 12:51:00,67.9,58.5,29.95,NNW,334,4.0,10.0,72,0.00,,---,0.00,VWS V13.01,2013-06-14 16:51:00,
2013-06-14 12:56:00,68.1,58.3,29.95,NNW,340,3.0,10.0,71,0.00,,---,0.00,VWS V13.01,2013-06-14 16:56:00,
2013-06-14 13:01:00,68.6,58.4,29.95,West,265,0.0,7.0,70,0.00,,---,0.00,VWS V13.01,2013-06-14 17:01:00,
2013-06-14 13:06:00,69.2,59.0,29.95,WNW,289,2.0,10.0,70,0.00,,---,0.00,VWS V13.01,2013-06-14 17:06:00,
2013-06-14 13:11:00,69.5,59.3,29.95,WNW,291,4.0,11.0,70,0.00,,---,0.00,VWS V13.01,2013-06-14 17:11:00,
2013-06-14 13:16:00,69.8,59.2,29.95,West,265,4.0,11.0,69,0.00,,---,0.00,VWS V13.01,2013-06-14 17:16:00,
2013-06-14 13:21:00,70.2,59.6,29.95,NW,326,7.0,11.0,69,0.00,,---,0.00,VWS V13.01,2013-06-14 17:21:00,
2013-06-14 13:26:00,70.4,59.3,29.95,SW,225,4.0,11.0,68,0.00,,---,0.00,VWS V13.01,2013-06-14 17:26:00,
2013-06-14 13:31:00,70.9,59.8,29.96,NW,313,4.0,7.0,68,0.00,,---,0.00,VWS V13.01,2013-06-14 17:31:00,
2013-06-14 13:36:00,70.6,58.7,29.96,WNW,295,5.0,11.0,66,0.00,,---,0.00,VWS V13.01,2013-06-14 17:36:00,
2013-06-14 13:41:00,69.4,57.6,29.96,NW,311,4.0,12.0,66,0.00,,---,0.00,VWS V13.01,2013-06-14 17:41:00,
2013-06-14 13:46:00,69.4,59.2,29.97,WNW,294,1.0,12.0,70,0.00,,---,0.00,VWS V13.01,2013-06-14 17:46:00,
2013-06-14 13:51:00,70.1,59.1,29.97,WNW,298,5.0,15.0,68,0.00,,---,0.00,VWS V13.01,2013-06-14 17:51:00,
2013-06-14 13:56:00,70.0,59.4,29.96,WNW,292,2.0,15.0,69,0.00,,---,0.00,VWS V13.01,2013-06-14 17:56:00,
2013-06-14 14:01:00,70.5,60.3,29.96,North,360,3.0,9.0,70,0.00,,---,0.00,VWS V13.01,2013-06-14 18:01:00,
2013-06-14 14:06:00,70.6,57.8,29.96,NNW,336,11.0,14.0,64,0.00,,---,0.00,VWS V13.01,2013-06-14 18:06:00,
2013-06-14 14:11:00,70.4,59.3,29.95,WSW,257,3.0,14.0,68,0.00,,---,0.00,VWS V13.01,2013-06-14 18:11:00,
2013-06-14 14:16:00,70.8,59.7,29.95,WNW,291,8.0,14.0,68,0.00,,---,0.00,VWS V13.01,2013-06-14 18:16:00,
2013-06-14 14:21:00,71.0,57.8,29.95,WNW,284,6.0,14.0,63,0.00,,---,0.00,VWS V13.01,2013-06-14 18:21:00,
2013-06-14 14:26:00,71.1,59.2,29.95,WSW,257,2.0,14.0,66,0.00,,---,0.00,VWS V13.01,2013-06-14 18:26:00,
2013-06-14 14:31:00,71.2,59.3,29.95,SW,233,6.0,10.0,66,0.00,,---,0.00,VWS V13.01,2013-06-14 18:31:00,
2013-06-14 14:36:00,71.3,58.9,29.95,NW,318,3.0,10.0,65,0.00,,---,0.00,VWS V13.01,2013-06-14 18:36:00,
2013-06-14 14:41:00,71.7,59.8,29.95,WSW,239,4.0,11.0,66,0.00,,---,0.00,VWS V13.01,2013-06-14 18:41:00,
2013-06-14 14:46:00,71.8,57.6,29.95,NNW,344,1.0,11.0,61,0.00,,---,0.00,VWS V13.01,2013-06-14 18:46:00,
2013-06-14 14:51:00,71.5,58.3,29.95,WNW,292,2.0,11.0,63,0.00,,---,0.00,VWS V13.01,2013-06-14 18:51:00,
2013-06-14 14:56:00,71.5,58.3,29.95,WNW,294,7.0,11.0,63,0.00,,---,0.00,VWS V13.01,2013-06-14 18:56:00,
2013-06-14 15:01:00,71.8,58.1,29.95,NNW,333,6.0,7.0,62,0.00,,---,0.00,VWS V13.01,2013-06-14 19:01:00,
2013-06-14 15:06:00,72.2,56.6,29.95,WNW,289,6.0,13.0,58,0.00,,---,0.00,VWS V13.01,2013-06-14 19:06:00,
2013-06-14 15:11:00,72.6,57.5,29.95,West,272,3.0,13.0,59,0.00,,---,0.00,VWS V13.01,2013-06-14 19:11:00,
2013-06-14 15:16:00,73.0,57.4,29.95,WNW,292,6.0,13.0,58,0.00,,---,0.00,VWS V13.01,2013-06-14 19:16:00,
2013-06-14 15:21:00,72.5,57.8,29.95,West,267,3.0,13.0,60,0.00,,---,0.00,VWS V13.01,2013-06-14 19:21:00,
2013-06-14 15:26:00,72.8,57.2,29.95,WNW,298,3.0,13.0,58,0.00,,---,0.00,VWS V13.01,2013-06-14 19:26:00,
2013-06-14 15:31:00,72.9,57.8,29.95,NW,318,2.0,5.0,59,0.00,,---,0.00,VWS V13.01,2013-06-14 19:31:00,
2013-06-14 15:36:00,73.4,57.3,29.95,West,265,7.0,14.0,57,0.00,,---,0.00,VWS V13.01,2013-06-14 19:36:00,
2013-06-14 15:41:00,73.2,57.5,29.95,SW,234,4.0,14.0,58,0.00,,---,0.00,VWS V13.01,2013-06-14 19:41:00,
2013-06-14 15:46:00,73.4,58.2,29.94,NW,319,2.0,14.0,59,0.00,,---,0.00,VWS V13.01,2013-06-14 19:46:00,
2013-06-14 15:51:00,73.9,59.2,29.95,West,279,1.0,14.0,60,0.00,,---,0.00,VWS V13.01,2013-06-14 19:51:00,
2013-06-14 15:56:00,74.0,58.8,29.95,SW,230,10.0,14.0,59,0.00,,---,0.00,VWS V13.01,2013-06-14 19:56:00,
2013-06-14 16:01:00,73.8,57.1,29.94,WNW,284,4.0,7.0,56,0.00,,---,0.00,VWS V13.01,2013-06-14 20:01:00,
2013-06-14 16:06:00,74.0,57.3,29.94,North,10,1.0,7.0,56,0.00,,---,0.00,VWS V13.01,2013-06-14 20:06:00,
2013-06-14 16:11:00,74.0,56.8,29.94,NNW,338,5.0,11.0,55,0.00,,---,0.00,VWS V13.01,2013-06-14 20:11:00,
2013-06-14 16:16:00,73.5,57.8,29.94,West,273,5.0,11.0,58,0.00,,---,0.00,VWS V13.01,2013-06-14 20:16:00,
2013-06-14 16:21:00,73.7,58.0,29.94,West,271,5.0,11.0,58,0.00,,---,0.00,VWS V13.01,2013-06-14 20:21:00,
2013-06-14 16:26:00,73.8,59.1,29.94,West,281,7.0,11.0,60,0.00,,---,0.00,VWS V13.01,2013-06-14 20:26:00,
2013-06-14 16:31:00,74.1,58.9,29.94,NW,323,3.0,7.0,59,0.00,,---,0.00,VWS V13.01,2013-06-14 20:31:00,
2013-06-14 16:36:00,74.4,59.6,29.94,West,260,0.0,9.0,60,0.00,,---,0.00,VWS V13.01,2013-06-14 20:36:00,
2013-06-14 16:41:00,74.8,60.0,29.93,NW,314,1.0,9.0,60,0.00,,---,0.00,VWS V13.01,2013-06-14 20:41:00,
2013-06-14 16:46:00,74.8,58.1,29.93,NW,304,4.0,11.0,56,0.00,,---,0.00,VWS V13.01,2013-06-14 20:46:00,
2013-06-14 16:51:00,74.3,58.1,29.93,SW,225,3.0,11.0,57,0.00,,---,0.00,VWS V13.01,2013-06-14 20:51:00,
2013-06-14 16:56:00,74.2,58.0,29.93,WNW,282,6.0,13.0,57,0.00,,---,0.00,VWS V13.01,2013-06-14 20:56:00,
2013-06-14 17:01:00,74.1,57.9,29.93,NW,314,4.0,8.0,57,0.00,,---,0.00,VWS V13.01,2013-06-14 21:01:00,
2013-06-14 17:06:00,74.2,58.5,29.94,WNW,292,4.0,9.0,58,0.00,,---,0.00,VWS V13.01,2013-06-14 21:06:00,
2013-06-14 17:11:00,74.1,57.4,29.94,WNW,293,3.0,9.0,56,0.00,,---,0.00,VWS V13.01,2013-06-14 21:11:00,
2013-06-14 17:16:00,73.8,57.6,29.94,NNW,342,2.0,11.0,57,0.00,,---,0.00,VWS V13.01,2013-06-14 21:16:00,
2013-06-14 17:21:00,73.1,57.0,29.94,WNW,282,4.0,11.0,57,0.00,,---,0.00,VWS V13.01,2013-06-14 21:21:00,
2013-06-14 17:26:00,72.4,57.3,29.94,WNW,286,5.0,11.0,59,0.00,,---,0.00,VWS V13.01,2013-06-14 21:26:00,
2013-06-14 17:31:00,72.1,57.0,29.94,West,267,0.0,6.0,59,0.00,,---,0.00,VWS V13.01,2013-06-14 21:31:00,
2013-06-14 17:36:00,71.9,57.7,29.94,West,265,4.0,7.0,61,0.00,,---,0.00,VWS V13.01,2013-06-14 21:36:00,
2013-06-14 17:41:00,71.9,57.7,29.94,SW,232,4.0,7.0,61,0.00,,---,0.00,VWS V13.01,2013-06-14 21:41:00,
2013-06-14 17:46:00,71.9,57.7,29.94,WSW,258,4.0,9.0,61,0.00,,---,0.00,VWS V13.01,2013-06-14 21:46:00,
2013-06-14 17:51:00,72.0,57.8,29.94,West,280,7.0,9.0,61,0.00,,---,0.00,VWS V13.01,2013-06-14 21:51:00,
2013-06-14 17:56:00,72.6,58.8,29.94,NW,308,2.0,10.0,62,0.00,,---,0.00,VWS V13.01,2013-06-14 21:56:00,
2013-06-14 18:01:00,73.5,57.3,29.94,NW,314,10.0,12.0,57,0.00,,---,0.00,VWS V13.01,2013-06-14 22:01:00,
2013-06-14 18:06:00,73.6,57.9,29.94,NW,316,3.0,12.0,58,0.00,,---,0.00,VWS V13.01,2013-06-14 22:06:00,
2013-06-14 18:11:00,73.6,57.9,29.94,SW,227,8.0,12.0,58,0.00,,---,0.00,VWS V13.01,2013-06-14 22:11:00,
2013-06-14 18:16:00,73.4,57.3,29.94,WSW,249,2.0,12.0,57,0.00,,---,0.00,VWS V13.01,2013-06-14 22:16:00,
2013-06-14 18:21:00,73.3,56.7,29.94,NW,314,4.0,12.0,56,0.00,,---,0.00,VWS V13.01,2013-06-14 22:21:00,
2013-06-14 18:26:00,72.8,57.2,29.94,WNW,290,3.0,12.0,58,0.00,,---,0.00,VWS V13.01,2013-06-14 22:26:00,
2013-06-14 18:31:00,72.5,57.4,29.94,WSW,242,3.0,6.0,59,0.00,,---,0.00,VWS V13.01,2013-06-14 22:31:00,
2013-06-14 18:36:00,72.7,58.0,29.94,North,350,2.0,7.0,60,0.00,,---,0.00,VWS V13.01,2013-06-14 22:36:00,
2013-06-14 18:41:00,72.8,58.1,29.94,WSW,237,2.0,7.0,60,0.00,,---,0.00,VWS V13.01,2013-06-14 22:41:00,
2013-06-14 18:46:00,72.7,57.1,29.94,WNW,284,3.0,9.0,58,0.00,,---,0.00,VWS V13.01,2013-06-14 22:46:00,
2013-06-14 18:51:00,72.8,57.7,29.94,SW,220,5.0,10.0,59,0.00,,---,0.00,VWS V13.01,2013-06-14 22:51:00,
2013-06-14 18:56:00,73.2,58.0,29.94,West,261,5.0,11.0,59,0.00,,---,0.00,VWS V13.01,2013-06-14 22:56:00,
2013-06-14 19:01:00,73.1,57.5,29.94,NW,318,3.0,9.0,58,0.00,,---,0.00,VWS V13.01,2013-06-14 23:01:00,
2013-06-14 19:06:00,72.7,57.6,29.94,WNW,300,2.0,9.0,59,0.00,,---,0.00,VWS V13.01,2013-06-14 23:06:00,
2013-06-14 19:11:00,72.6,57.5,29.94,NNW,327,1.0,9.0,59,0.00,,---,0.00,VWS V13.01,2013-06-14 23:11:00,
2013-06-14 19:16:00,72.4,57.8,29.94,NW,309,2.0,9.0,60,0.00,,---,0.00,VWS V13.01,2013-06-14 23:16:00,
2013-06-14 19:21:00,72.3,57.7,29.94,WNW,289,4.0,9.0,60,0.00,,---,0.00,VWS V13.01,2013-06-14 23:21:00,
2013-06-14 19:26:00,72.4,57.3,29.94,NNW,338,4.0,9.0,59,0.00,,---,0.00,VWS V13.01,2013-06-14 23:26:00,
2013-06-14 19:31:00,72.4,57.8,29.95,NNW,331,3.0,5.0,60,0.00,,---,0.00,VWS V13.01,2013-06-14 23:31:00,
2013-06-14 19:36:00,72.4,58.2,29.95,NNW,345,0.0,5.0,61,0.00,,---,0.00,VWS V13.01,2013-06-14 23:36:00,
2013-06-14 19:41:00,72.5,58.3,29.95,NNW,346,0.0,5.0,61,0.00,,---,0.00,VWS V13.01,2013-06-14 23:41:00,
2013-06-14 19:46:00,72.4,57.8,29.95,NW,323,1.0,6.0,60,0.00,,---,0.00,VWS V13.01,2013-06-14 23:46:00,
2013-06-14 19:51:00,71.9,58.2,29.95,WNW,300,2.0,6.0,62,0.00,,---,0.00,VWS V13.01,2013-06-14 23:51:00,
2013-06-14 19:56:00,71.4,57.7,29.95,WNW,296,1.0,9.0,62,0.00,,---,0.00,VWS V13.01,2013-06-14 23:56:00,
2013-06-14 20:01:00,71.0,57.3,29.95,WNW,296,1.0,3.0,62,0.00,,---,0.00,VWS V13.01,2013-06-15 00:01:00,
2013-06-14 20:06:00,70.9,57.2,29.95,West,269,0.0,3.0,62,0.00,,---,0.00,VWS V13.01,2013-06-15 00:06:00,
2013-06-14 20:11:00,70.9,57.7,29.95,SW,232,2.0,3.0,63,0.00,,---,0.00,VWS V13.01,2013-06-15 00:11:00,
2013-06-14 20:16:00,70.7,57.5,29.95,West,277,2.0,5.0,63,0.00,,---,0.00,VWS V13.01,2013-06-15 00:16:00,
2013-06-14 20:21:00,70.5,57.8,29.96,WNW,287,0.0,6.0,64,0.00,,---,0.00,VWS V13.01,2013-06-15 00:21:00,
2013-06-14 20:26:00,70.2,57.0,29.96,West,276,0.0,6.0,63,0.00,,---,0.00,VWS V13.01,2013-06-15 00:26:00,
2013-06-14 20:31:00,69.9,57.2,29.96,WNW,287,4.0,7.0,64,0.00,,---,0.00,VWS V13.01,2013-06-15 00:31:00,
2013-06-14 20:36:00,69.7,57.0,29.96,WNW,298,2.0,7.0,64,0.00,,---,0.00,VWS V13.01,2013-06-15 00:36:00,
2013-06-14 20:42:00,69.4,56.7,29.97,NNW,343,2.0,7.0,64,0.00,,---,0.00,VWS V13.01,2013-06-15 00:42:00,
2013-06-14 20:47:00,69.2,57.0,29.97,NW,306,2.0,7.0,65,0.00,,---,0.00,VWS V13.01,2013-06-15 00:47:00,
2013-06-14 20:52:00,69.0,57.2,29.97,NW,309,1.0,7.0,66,0.00,,---,0.00,VWS V13.01,2013-06-15 00:52:00,
2013-06-14 20:57:00,68.8,57.0,29.97,NW,309,0.0,7.0,66,0.00,,---,0.00,VWS V13.01,2013-06-15 00:57:00,
2013-06-14 21:02:00,68.6,57.2,29.97,NW,325,0.0,3.0,67,0.00,,---,0.00,VWS V13.01,2013-06-15 01:02:00,
2013-06-14 21:07:00,68.3,57.3,29.97,NW,317,1.0,3.0,68,0.00,,---,0.00,VWS V13.01,2013-06-15 01:07:00,
2013-06-14 21:12:00,68.0,57.1,29.98,NW,317,0.0,3.0,68,0.00,,---,0.00,VWS V13.01,2013-06-15 01:12:00,
2013-06-14 21:17:00,67.6,56.7,29.98,NW,318,0.0,3.0,68,0.00,,---,0.00,VWS V13.01,2013-06-15 01:17:00,
2013-06-14 21:22:00,67.3,56.8,29.98,NW,318,0.0,3.0,69,0.00,,---,0.00,VWS V13.01,2013-06-15 01:22:00,
2013-06-14 21:27:00,67.0,56.5,29.98,NW,318,0.0,3.0,69,0.00,,---,0.00,VWS V13.01,2013-06-15 01:27:00,
2013-06-14 21:32:00,66.7,56.6,29.98,NW,307,0.0,3.0,70,0.00,,---,0.00,VWS V13.01,2013-06-15 01:32:00,
2013-06-14 21:37:00,66.4,56.3,29.98,NW,307,0.0,3.0,70,0.00,,---,0.00,VWS V13.01,2013-06-15 01:37:00,
2013-06-14 21:42:00,66.1,56.0,29.99,NW,307,0.0,3.0,70,0.00,,---,0.00,VWS V13.01,2013-06-15 01:42:00,
2013-06-14 21:47:00,65.8,56.2,29.99,NW,307,0.0,3.0,71,0.00,,---,0.00,VWS V13.01,2013-06-15 01:47:00,
2013-06-14 21:52:00,65.5,55.9,29.99,NW,307,0.0,3.0,71,0.00,,---,0.00,VWS V13.01,2013-06-15 01:52:00,
2013-06-14 21:57:00,65.1,55.9,29.99,NW,307,0.0,3.0,72,0.00,,---,0.00,VWS V13.01,2013-06-15 01:57:00,
2013-06-14 22:02:00,64.7,55.9,30.00,NW,307,0.0,0.0,73,0.00,,---,0.00,VWS V13.01,2013-06-15 02:02:00,
2013-06-14 22:07:00,64.4,55.9,30.00,NW,307,0.0,0.0,74,0.00,,---,0.00,VWS V13.01,2013-06-15 02:07:00,
2013-06-14 22:12:00,64.1,56.0,30.00,NW,307,0.0,0.0,75,0.00,,---,0.00,VWS V13.01,2013-06-15 02:12:00,
2013-06-14 22:17:00,63.8,55.7,30.00,NW,307,0.0,0.0,75,0.00,,---,0.00,VWS V13.01,2013-06-15 02:17:00,
2013-06-14 22:22:00,63.5,55.4,30.01,NW,307,0.0,0.0,75,0.00,,---,0.00,VWS V13.01,2013-06-15 02:22:00,
2013-06-14 22:27:00,63.2,55.5,30.01,NW,307,0.0,0.0,76,0.00,,---,0.00,VWS V13.01,2013-06-15 02:27:00,
2013-06-14 22:32:00,63.0,55.7,30.01,NW,307,0.0,0.0,77,0.00,,---,0.00,VWS V13.01,2013-06-15 02:32:00,
2013-06-14 22:37:00,62.7,55.8,30.00,NW,307,0.0,0.0,78,0.00,,---,0.00,VWS V13.01,2013-06-15 02:37:00,
2013-06-14 22:42:00,62.4,55.5,30.01,NW,307,0.0,1.0,78,0.00,,---,0.00,VWS V13.01,2013-06-15 02:42:00,
2013-06-14 22:47:00,62.1,55.5,30.01,NW,307,0.0,1.0,79,0.00,,---,0.00,VWS V13.01,2013-06-15 02:47:00,
2013-06-14 22:52:00,61.8,55.2,30.01,NW,307,0.0,1.0,79,0.00,,---,0.00,VWS V13.01,2013-06-15 02:52:00,
2013-06-14 22:57:00,61.6,55.4,30.01,NW,307,0.0,1.0,80,0.00,,---,0.00,VWS V13.01,2013-06-15 02:57:00,
2013-06-14 23:02:00,61.3,55.4,30.02,NW,307,0.0,0.0,81,0.00,,---,0.00,VWS V13.01,2013-06-15 03:02:00,
2013-06-14 23:07:00,61.1,55.2,30.02,NW,307,0.0,0.0,81,0.00,,---,0.00,VWS V13.01,2013-06-15 03:07:00,
2013-06-14 23:12:00,60.8,55.3,30.02,NW,307,0.0,0.0,82,0.00,,---,0.00,VWS V13.01,2013-06-15 03:12:00,
2013-06-14 23:17:00,60.5,55.0,30.02,NW,307,0.0,0.0,82,0.00,,---,0.00,VWS V13.01,2013-06-15 03:17:00,
2013-06-14 23:22:00,60.3,55.1,30.02,NW,307,0.0,0.0,83,0.00,,---,0.00,VWS V13.01,2013-06-15 03:22:00,
2013-06-14 23:27:00,60.1,54.9,30.02,NW,307,0.0,2.0,83,0.00,,---,0.00,VWS V13.01,2013-06-15 03:27:00,
2013-06-14 23:32:00,59.9,55.1,30.03,NW,307,0.0,0.0,84,0.00,,---,0.00,VWS V13.01,2013-06-15 03:32:00,
2013-06-14 23:37:00,59.7,54.9,30.03,NW,307,0.0,0.0,84,0.00,,---,0.00,VWS V13.01,2013-06-15 03:37:00,
2013-06-14 23:42:00,59.5,54.7,30.03,NW,307,0.0,0.0,84,0.00,,---,0.00,VWS V13.01,2013-06-15 03:42:00,
2013-06-14 23:47:00,59.3,54.8,30.03,NW,307,0.0,0.0,85,0.00,,---,0.00,VWS V13.01,2013-06-15 03:47:00,
2013-06-14 23:52:00,59.1,54.6,30.03,NW,307,0.0,0.0,85,0.00,,---,0.00,VWS V13.01,2013-06-15 03:52:00,
2013-06-14 23:57:00,59.0,54.8,30.03,NW,307,0.0,0.0,86,0.00,,---,0.00,VWS V13.01,2013-06-15 03:57:00,